Home > Weather > Malabo > Past weeks

Flag for Equatorial Guinea Weather for the Past 2 Weeks in Malabo, Equatorial Guinea

Now
81 °F

Passing clouds.


Feels Like: 86 °F
Forecast: 76 / 85 °F
Wind: 9 mph from Southwest

Location: Malabo/Fernando Poo

Current Time: Feb 7, 2016 at 3:12:32 AM

Latest Report: Feb 7, 2016 at 2:00 AM


Visibility: 4 mi

Pressure: 29.89 "Hg

Humidity: 84%

Dew point: 75 °F

Location of MalaboLocation

Historic Weather in Malabo — Graph

°F

Malabo Temperature Yesterday

Maximum temperature yesterday: 88 °F (at 2:00 PM)
Minimum temperature yesterday: 81 °F (at 3:00 AM)
Average temperature yesterday: 83 °F

High & Low Weather Summary for the Past Weeks

 TemperatureHumidityPressure
High91 °F (Jan 27, 3:00 PM)94% (Jan 26, 1:00 AM)30.01 "Hg (Jan 26, 1:00 AM)
Low70 °F (Jan 30, 7:00 AM)43% (Jan 31, 11:00 AM)29.77 "Hg (Feb 2, 3:00 PM)
Average81 °F74%29.90 "Hg
* Reported Jan 23 1:00 AM — Feb 7 1:00 AM, Malabo, Weather by CustomWeather, © 2016

Note: Actual official high and low records may vary slightly from our data, if they occured in-between our weather recording intervals... More about our weather records

Advertising

Malabo Weather History for the Previous 24 Hours

 ConditionsComfort  
Time TempWeatherWind HumidityBarometerVisibility
1:00 AM
Sun, Feb 7
81 °FFog.8 mph84%29.92 "Hg1 mi
12:00 AM79 °FFog.7 mph84%29.92 "Hg1 mi
11:00 PM
Sat, Feb 6
81 °FFog.7 mph84%29.92 "Hg2 mi
9:00 PM82 °FFog.7 mph79%29.92 "Hg2 mi
8:00 PM82 °FFog.7 mph79%29.89 "Hg1 mi
7:00 PM82 °FFog.7 mph79%29.86 "Hg1 mi
6:00 PM84 °FFog.7 mph79%29.86 "Hg1 mi
5:00 PM86 °FFog.9 mph75%29.83 "Hg2 mi
4:00 PM88 °FFog.9 mph70%29.83 "Hg2 mi
3:00 PM88 °FFog.9 mph66%29.83 "Hg2 mi
2:00 PM88 °FFog.10 mph70%29.86 "Hg2 mi
1:00 PM86 °FFog.9 mph75%29.89 "Hg2 mi
12:00 PM86 °FScattered clouds.9 mph75%29.92 "Hg4 mi
11:00 AM86 °FScattered clouds.8 mph70%29.95 "Hg4 mi
10:00 AM84 °FScattered clouds.7 mph79%29.95 "Hg4 mi
9:00 AM81 °FFog.5 mph89%29.95 "Hg3 mi
8:00 AM81 °FFog.5 mph84%29.95 "Hg3 mi
7:00 AM81 °FFog.6 mph84%29.92 "Hg3 mi
6:00 AM81 °FFog.5 mph84%29.89 "Hg2 mi
5:00 AM81 °FFog.6 mph84%29.89 "Hg2 mi
4:00 AM81 °FFog.7 mph84%29.89 "Hg2 mi
3:00 AM81 °FFog.8 mph84%29.89 "Hg2 mi
Weather by CustomWeather, © 2016

See weather overviewHow to use our weather pages